Mount Washington, New Hampshire, United States (03589)
Lat: 44.69N, Lon: 71.39W
Wx Zone: NHZ002
Local Info
Past Weather Observations for Today

NOTE: This archive is for the closest National Weather Service station to Mount Washington. Information may differ from the station used for current weather conditions.

Click here for Long-term Archive

Time Weather Temperature Dewpoint Humidity Pressure Winds Precip Visibility
12:52
Partly Cloudy
73°F / 23°C 45°F / 7°C 36% 29.95 in
(1014 mb)
WNW 8.1 mph
(WNW 13 kph)
- 10SM
11:52
Partly Cloudy
73°F / 23°C 43°F / 6°C 33% 29.95 in
(1014 mb)
NNW 8.1 mph
(NNW 13 kph)
- 10SM
10:52
Partly Cloudy
73°F / 23°C 43°F / 6°C 33% 29.95 in
(1014 mb)
NNW 12.7 mph
(NNW 20 kph)
- 10SM
09:52
Clear
70°F / 21°C 46°F / 8°C 43% 29.98 in
(1015 mb)
W 9.2 mph
(W 15 kph)
- 10SM
08:52
Clear
66°F / 19°C 46°F / 8°C 49% 29.98 in
(1015 mb)
WNW 9.2 mph
(WNW 15 kph)
- 10SM
07:52
Clear
63°F / 17°C 46°F / 8°C 56% 29.98 in
(1015 mb)
NW 3.5 mph
(NW 6 kph)
- 10SM
06:52
Clear
54°F / 12°C 46°F / 8°C 77% 29.98 in
(1015 mb)
Calm - 10SM
05:52
Partly Cloudy
45°F / 7°C 43°F / 6°C 93% 29.95 in
(1014 mb)
Calm - 10SM
05:47
Partly Cloudy
45°F / 7°C 43°F / 6°C 93% 29.95 in
(1014 mb)
Calm - 10SM
05:33
Mostly Cloudy
Fog And Mist
43°F / 6°C 41°F / 5°C 93% 29.95 in
(1014 mb)
Calm - 3SM
05:31
Mostly Cloudy
Fog And Mist
43°F / 6°C 41°F / 5°C 93% 29.95 in
(1014 mb)
Calm - 1 1/2SM
05:18
Obscured
Fog And Mist
41°F / 5°C 39°F / 4°C 93% 29.95 in
(1014 mb)
Calm - 3/4SM
05:14
Overcast
Fog And Mist
41°F / 5°C 39°F / 4°C 93% 29.95 in
(1014 mb)
Calm - 1 3/4SM
05:06
Mostly Cloudy
39°F / 4°C 39°F / 4°C 100% 29.95 in
(1014 mb)
Calm - 10SM
04:59
Overcast
Fog And Mist
39°F / 4°C 39°F / 4°C 100% 29.95 in
(1014 mb)
Calm - 2 1/2SM
04:57
Obscured
Fog And Mist
39°F / 4°C 37°F / 3°C 93% 29.95 in
(1014 mb)
Calm - 1SM
04:52
Obscured
Fog
39°F / 4°C 37°F / 3°C 93% 29.95 in
(1014 mb)
Calm - 1/4SM
04:09
Obscured
Fog
37°F / 3°C 36°F / 2°C 93% 29.95 in
(1014 mb)
Calm - 1/4SM
04:06
Mostly Cloudy
Fog And Mist
37°F / 3°C 36°F / 2°C 93% 29.95 in
(1014 mb)
Calm - 1 1/4SM
03:52
Partly Cloudy
39°F / 4°C 37°F / 3°C 93% 29.95 in
(1014 mb)
Calm - 9SM
03:48
Mostly Cloudy
Fog And Mist
39°F / 4°C 37°F / 3°C 93% 29.95 in
(1014 mb)
Calm - 2SM
03:36
Obscured
Fog And Mist
39°F / 4°C 37°F / 3°C 93% 29.95 in
(1014 mb)
Calm - 3/4SM
03:28
Obscured
Fog
39°F / 4°C 37°F / 3°C 93% 29.95 in
(1014 mb)
Calm - 1/4SM
03:05
Obscured
Fog And Mist
39°F / 4°C 37°F / 3°C 93% 29.95 in
(1014 mb)
Calm - 3/4SM
03:02
Mostly Cloudy
Fog And Mist
39°F / 4°C 37°F / 3°C 93% 29.95 in
(1014 mb)
Calm - 1 3/4SM
02:52
Mostly Cloudy
Fog And Mist
39°F / 4°C 37°F / 3°C 93% 29.95 in
(1014 mb)
Calm - 6SM
02:24
Mostly Cloudy
39°F / 4°C 37°F / 3°C 93% 29.95 in
(1014 mb)
Calm - 10SM
02:16
Partly Cloudy
37°F / 3°C 36°F / 2°C 93% 29.95 in
(1014 mb)
Calm - 10SM
01:52
Clear
39°F / 4°C 37°F / 3°C 93% 29.92 in
(1013 mb)
Calm - 10SM
01:14
Partly Cloudy
41°F / 5°C 37°F / 3°C 87% 29.92 in
(1013 mb)
Calm - 10SM
00:52
Clear
43°F / 6°C 39°F / 4°C 87% 29.92 in
(1013 mb)
Calm - 10SM
Time Weather Temperature Dewpoint Humidity Pressure Winds Precip Visibility


Weather for websites

WeatherForYou.com, LLC is not responsible for any damages or problems caused by this service. Current weather conditions are obtained from the closest station including government and personal stations which may have varying degrees of accuracy. Weather forecasts are derived from the NOAA NDFD. Like all things, this site belongs to Jesus Christ... He just trusts us to maintain it. If you have any questions or comments email webmaster@weatherforyou.com

Copyright © 2015, WeatherForYou.com LLC. All rights reserved.